Flag for Germany Weather past 2 weeks in Georgsmarienhütte, Lower Saxony, Germany

Now
61 °F

Partly cloudy.


Feels Like: 61 °F
Forecast: 57 / 65 °F
Wind: 8 mph from Southwest

Location: Muenster / Osnabrueck

Current Time: Aug 29, 2014 at 5:40:30 AM

Latest Report: Aug 29, 2014 at 4:50 AM


Visibility: N/A

Pressure: 29.95 "Hg

Humidity: 94%

Dew point: 59 °F

Location of GeorgsmarienhütteLocation

Historic Weather in Georgsmarienhütte — Graph

°F

Georgsmarienhütte temperature yesterday

Maximum temperature yesterday: 75 °F (at 3:20 PM)
Minimum temperature yesterday: 48 °F (at 12:50 AM)
Average temperature yesterday: 62 °F

Past Weeks' High & Low Weather Summary

 TemperatureHumidityPressure
High75 °F (Aug 28, 3:20 PM)100% (Aug 14, 11:20 PM)30.07 "Hg (Aug 14, 11:20 PM)
Low41 °F (Aug 25, 3:50 AM)40% (Aug 27, 6:20 PM)29.62 "Hg (Aug 18, 4:20 AM)
Average56 °F83%29.89 "Hg
* Reported Aug 14 4:20 AM — Aug 29 4:20 AM, Georgsmarienhütte, Weather by CustomWeather, © 2014

Note: Actual official high and low records may vary slightly from our data, if they occured in-between our weather recording intervals... More about our weather records

Advertising

Georgsmarienhütte weather history for previous 24 hours

 ConditionsComfort  
Time TempWeatherWind HumidityBarometerVisibility
4:20 AM
Aug 29
61 °FPartly cloudy.7 mph94%29.92 "HgN/A
3:50 AM61 °FLight rain. Partly cloudy.8 mph94%29.92 "Hg6 mi
3:20 AM61 °FPartly cloudy.10 mph94%29.92 "Hg4 mi
2:50 AM63 °FLight rain. Passing clouds.2 mph94%29.92 "HgN/A
2:20 AM63 °FLight rain. Passing clouds.5 mph94%29.92 "HgN/A
1:50 AM63 °FLight rain. Partly cloudy.6 mph94%29.92 "HgN/A
1:20 AM64 °FPartly cloudy.3 mph83%29.92 "HgN/A
12:50 AM63 °FPartly cloudy.3 mph88%29.92 "HgN/A
12:20 AM63 °FPassing clouds.3 mph88%29.92 "HgN/A
11:50 PM
Aug 28
63 °FPassing clouds.3 mph88%29.92 "HgN/A
11:20 PM63 °FClear.5 mph88%29.92 "Hg10 mi
10:50 PM63 °FClear.3 mph88%29.92 "Hg10 mi
10:20 PM63 °FClear.3 mph88%29.92 "Hg10 mi
9:50 PM64 °FClear.3 mph83%29.92 "Hg10 mi
9:20 PM64 °FBroken clouds.3 mph83%29.95 "HgN/A
8:50 PM64 °FBroken clouds.2 mph83%29.92 "HgN/A
8:20 PM68 °FBroken clouds.5 mph73%29.92 "HgN/A
7:50 PM70 °FPartly sunny.9 mph69%29.92 "HgN/A
7:20 PM68 °FPartly sunny.2 mph78%29.92 "HgN/A
6:50 PM68 °FPartly sunny.2 mph78%29.92 "HgN/A
6:20 PM70 °FPartly sunny.2 mph69%29.92 "HgN/A
5:50 PM72 °FLight rain. Partly sunny.9 mph57%29.95 "HgN/A
5:20 PM73 °FBroken clouds.9 mph53%29.95 "HgN/A
4:50 PM73 °FBroken clouds.3 mph57%29.95 "HgN/A
4:20 PM73 °FPartly sunny.3 mph61%29.95 "HgN/A
3:50 PM73 °FPartly sunny.3 mph57%29.95 "HgN/A
3:20 PM75 °FBroken clouds.5 mph54%29.95 "HgN/A
2:50 PM73 °FScattered clouds.5 mph57%29.95 "HgN/A
2:20 PM73 °FPartly sunny.5 mph57%29.95 "HgN/A
1:50 PM72 °FPartly sunny.6 mph65%29.98 "HgN/A
1:20 PM70 °FScattered clouds.3 mph64%29.98 "HgN/A
12:50 PM72 °FScattered clouds.3 mph57%29.98 "HgN/A
12:20 PM70 °FPassing clouds.3 mph64%29.98 "HgN/A
11:50 AM68 °FSunny.5 mph69%30.01 "Hg10 mi
11:20 AM66 °FScattered clouds.5 mph68%30.01 "HgN/A
10:50 AM64 °FPassing clouds.3 mph73%30.01 "HgN/A
10:20 AM63 °FScattered clouds.5 mph68%30.01 "HgN/A
9:50 AM61 °FPartly sunny.3 mph72%30.01 "HgN/A
9:20 AM59 °FScattered clouds.5 mph72%30.01 "HgN/A
8:50 AM57 °FScattered clouds.3 mph77%30.01 "HgN/A
8:20 AM55 °FSunny.3 mph82%30.01 "Hg10 mi
7:50 AM54 °FSunny.5 mph82%30.01 "Hg10 mi
7:20 AM52 °FPassing clouds.6 mph88%30.01 "HgN/A
6:50 AM52 °FPassing clouds.3 mph88%30.01 "HgN/A
6:20 AM50 °FPassing clouds.5 mph94%30.01 "HgN/A
5:50 AM50 °FPassing clouds.3 mph94%30.01 "HgN/A
5:20 AM50 °FFog.5 mph94%30.01 "HgN/A
Weather by CustomWeather, © 2014

See weather overviewHow to use our weather pages